EN

Hourly Weather Topolice

Today, 21 April, Wednesday

Time Temperature Precipitation Wind Pressure Humidity
00:00 +7°C° 0 mm 1 mps 729 mmHg 80%
01:00 +7°C° 0 mm 1 mps 729 mmHg 82%
02:00 +7°C° 0 mm 1 mps 729 mmHg 83%
03:00 +7°C° 0 mm 1 mps 729 mmHg 85%
04:00 +7°C° 0 mm 1 mps 729 mmHg 87%
05:00 +7°C° 0 mm 1 mps 729 mmHg 85%
06:00 +7°C° 0 mm 2 mps 729 mmHg 83%
07:00 +8°C° 0 mm 2 mps 729 mmHg 81%
08:00 +10°C° 0.2 mm 2 mps 729 mmHg 76%
09:00 +12°C° 0.2 mm 2 mps 729 mmHg 70%
10:00 +12°C° 0.2 mm 3 mps 729 mmHg 65%
11:00 +13°C° 0.4 mm 3 mps 729 mmHg 62%
12:00 +13°C° 0.4 mm 3 mps 729 mmHg 58%
13:00 +14°C° 0.4 mm 3 mps 728 mmHg 55%
14:00 +14°C° 0.1 mm 3 mps 728 mmHg 55%
15:00 +14°C° 0.1 mm 3 mps 728 mmHg 56%
16:00 +14°C° 0.1 mm 3 mps 728 mmHg 56%
17:00 +13°C° 0.1 mm 2 mps 728 mmHg 62%
18:00 +10°C° 0.1 mm 2 mps 728 mmHg 67%
19:00 +10°C° 0.1 mm 1 mps 728 mmHg 73%
20:00 +9°C° 0 mm 1 mps 728 mmHg 74%
21:00 +9°C° 0 mm 1 mps 728 mmHg 75%
22:00 +9°C° 0 mm 1 mps 729 mmHg 76%
23:00 +8°C° 0 mm 1 mps 729 mmHg 79%

Tomorrow, 22 April, Thursday

Time Temperature Precipitation Wind Pressure Humidity
00:00 +7°C° 0 mm 1 mps 729 mmHg 83%
01:00 +6°C° 0 mm 1 mps 729 mmHg 86%
02:00 +6°C° 0 mm 1 mps 729 mmHg 87%
03:00 +6°C° 0 mm 1 mps 729 mmHg 89%
04:00 +5°C° 0 mm 1 mps 729 mmHg 91%
05:00 +4°C° 0.1 mm 2 mps 730 mmHg 87%
06:00 +4°C° 0.1 mm 2 mps 730 mmHg 83%
07:00 +3°C° 0.1 mm 3 mps 731 mmHg 79%
08:00 +4°C° 0 mm 3 mps 731 mmHg 70%
09:00 +5°C° 0 mm 4 mps 731 mmHg 61%
10:00 +6°C° 0 mm 5 mps 731 mmHg 51%
11:00 +6°C° 0 mm 5 mps 731 mmHg 48%
12:00 +7°C° 0 mm 6 mps 731 mmHg 44%
13:00 +8°C° 0 mm 6 mps 731 mmHg 40%
14:00 +8°C° 0 mm 6 mps 732 mmHg 42%
15:00 +8°C° 0 mm 6 mps 732 mmHg 44%
16:00 +7°C° 0 mm 6 mps 732 mmHg 45%
17:00 +6°C° 0 mm 5 mps 732 mmHg 53%
18:00 +5°C° 0 mm 4 mps 732 mmHg 60%
19:00 +3°C° 0 mm 3 mps 733 mmHg 68%
20:00 +3°C° 0 mm 3 mps 733 mmHg 72%
21:00 +3°C° 0 mm 2 mps 733 mmHg 77%
22:00 +2°C° 0 mm 2 mps 733 mmHg 82%
23:00 +2°C° 0 mm 2 mps 734 mmHg 83%

Day after tomorrow, 23 April, Friday

Time Temperature Precipitation Wind Pressure Humidity
00:00 +2°C° 0 mm 1 mps 734 mmHg 85%
01:00 +2°C° 0 mm 1 mps 734 mmHg 87%
02:00 +2°C° 0 mm 1 mps 734 mmHg 88%
03:00 +1°C° 0 mm 2 mps 734 mmHg 89%
04:00 +1°C° 0 mm 2 mps 734 mmHg 90%
05:00 +1°C° 0 mm 2 mps 734 mmHg 87%
06:00 +1°C° 0 mm 3 mps 734 mmHg 84%
07:00 +2°C° 0 mm 3 mps 734 mmHg 81%
08:00 +1°C° 0 mm 4 mps 734 mmHg 76%
09:00 +2°C° 0 mm 5 mps 735 mmHg 71%
10:00 +3°C° 0 mm 5 mps 735 mmHg 65%
11:00 +3°C° 0 mm 6 mps 735 mmHg 62%
12:00 +4°C° 0 mm 7 mps 735 mmHg 59%
13:00 +5°C° 0 mm 7 mps 735 mmHg 56%
14:00 +5°C° 0.1 mm 7 mps 735 mmHg 59%
15:00 +5°C° 0.1 mm 6 mps 735 mmHg 61%
16:00 +5°C° 0.1 mm 6 mps 735 mmHg 64%
17:00 +5°C° 0.1 mm 5 mps 735 mmHg 70%
18:00 +4°C° 0.1 mm 4 mps 735 mmHg 76%
19:00 +3°C° 0.1 mm 3 mps 736 mmHg 82%
20:00 +3°C° 0.1 mm 2 mps 736 mmHg 85%
21:00 +3°C° 0.1 mm 2 mps 736 mmHg 88%
22:00 +2°C° 0.1 mm 2 mps 736 mmHg 92%
23:00 +3°C° 0 mm 1 mps 736 mmHg 91%

24 April, Saturday

Time Temperature Precipitation Wind Pressure Humidity
00:00 +2°C° 0 mm 1 mps 737 mmHg 91%
01:00 +1°C° 0 mm 1 mps 737 mmHg 91%
02:00 +1°C° 0 mm 1 mps 737 mmHg 90%
03:00 +1°C° 0 mm 1 mps 737 mmHg 89%
04:00 0°C° 0 mm 1 mps 737 mmHg 88%
05:00 +2°C° 0 mm 1 mps 737 mmHg 79%
06:00 +3°C° 0 mm 1 mps 737 mmHg 71%
07:00 +4°C° 0 mm 1 mps 737 mmHg 62%
08:00 +5°C° 0 mm 2 mps 737 mmHg 59%
09:00 +5°C° 0 mm 3 mps 737 mmHg 56%
10:00 +6°C° 0 mm 4 mps 736 mmHg 53%
11:00 +6°C° 0 mm 4 mps 736 mmHg 54%
12:00 +6°C° 0 mm 5 mps 736 mmHg 56%
13:00 +7°C° 0 mm 5 mps 735 mmHg 57%
14:00 +6°C° 0.1 mm 5 mps 735 mmHg 59%
15:00 +6°C° 0.1 mm 5 mps 735 mmHg 60%
16:00 +6°C° 0.1 mm 5 mps 735 mmHg 62%
17:00 +5°C° 0.1 mm 4 mps 736 mmHg 68%
18:00 +4°C° 0.1 mm 3 mps 736 mmHg 73%
19:00 +3°C° 0.1 mm 2 mps 736 mmHg 79%
20:00 +3°C° 0 mm 2 mps 736 mmHg 83%
21:00 +2°C° 0 mm 2 mps 736 mmHg 88%
22:00 +1°C° 0 mm 2 mps 737 mmHg 92%
23:00 +1°C° 0.1 mm 2 mps 737 mmHg 93%

25 April, Sunday

Time Temperature Precipitation Wind Pressure Humidity
00:00 +1°C° 0.1 mm 2 mps 737 mmHg 94%
01:00 +1°C° 0.1 mm 2 mps 737 mmHg 95%
02:00 -1°C° 0 mm 2 mps 737 mmHg 94%
03:00 -1°C° 0 mm 2 mps 737 mmHg 93%
04:00 -2°C° 0 mm 2 mps 737 mmHg 91%
05:00 -1°C° 0 mm 2 mps 738 mmHg 83%
06:00 +1°C° 0 mm 2 mps 738 mmHg 74%
07:00 +2°C° 0 mm 2 mps 738 mmHg 65%
08:00 +3°C° 0 mm 2 mps 738 mmHg 57%
09:00 +5°C° 0 mm 2 mps 738 mmHg 49%
10:00 +5°C° 0 mm 3 mps 738 mmHg 42%
11:00 +7°C° 0 mm 3 mps 738 mmHg 41%
12:00 +8°C° 0 mm 3 mps 737 mmHg 40%
13:00 +8°C° 0 mm 3 mps 737 mmHg 39%
14:00 +9°C° 0 mm 3 mps 737 mmHg 39%
15:00 +9°C° 0 mm 3 mps 736 mmHg 40%
16:00 +9°C° 0 mm 3 mps 736 mmHg 40%
17:00 +7°C° 0 mm 3 mps 736 mmHg 48%
18:00 +5°C° 0 mm 2 mps 736 mmHg 55%
19:00 +5°C° 0 mm 1 mps 736 mmHg 62%
20:00 +4°C° 0 mm 1 mps 736 mmHg 65%
21:00 +3°C° 0 mm 1 mps 736 mmHg 67%
22:00 +3°C° 0 mm 1 mps 736 mmHg 69%
23:00 +2°C° 0 mm 1 mps 736 mmHg 70%

26 April, Monday

Time Temperature Precipitation Wind Pressure Humidity
00:00 +2°C° 0 mm 1 mps 736 mmHg 72%
01:00 +2°C° 0 mm 1 mps 736 mmHg 73%
02:00 +2°C° 0 mm 1 mps 736 mmHg 73%
03:00 +1°C° 0 mm 1 mps 735 mmHg 74%
04:00 +1°C° 0 mm 1 mps 735 mmHg 74%
05:00 +3°C° 0 mm 1 mps 735 mmHg 68%
06:00 +5°C° 0 mm 1 mps 735 mmHg 62%
07:00 +6°C° 0 mm 1 mps 735 mmHg 56%
08:00 +8°C° 0 mm 1 mps 735 mmHg 51%
09:00 +9°C° 0 mm 1 mps 735 mmHg 46%
10:00 +11°C° 0 mm 1 mps 735 mmHg 42%
11:00 +11°C° 0 mm 1 mps 734 mmHg 41%
12:00 +12°C° 0 mm 1 mps 734 mmHg 40%
13:00 +13°C° 0 mm 1 mps 733 mmHg 39%
14:00 +13°C° 0 mm 1 mps 733 mmHg 40%
15:00 +13°C° 0 mm 2 mps 732 mmHg 41%
16:00 +13°C° 0 mm 2 mps 732 mmHg 42%
17:00 +10°C° 0 mm 2 mps 732 mmHg 51%
18:00 +8°C° 0 mm 2 mps 731 mmHg 60%
19:00 +6°C° 0 mm 2 mps 731 mmHg 69%
20:00 +5°C° 0 mm 2 mps 731 mmHg 69%
21:00 +4°C° 0 mm 2 mps 731 mmHg 70%
22:00 +4°C° 0 mm 2 mps 731 mmHg 70%
23:00 +3°C° 0 mm 2 mps 730 mmHg 72%
Show more

We Need Your Consent

Meteoprog and our Service Providers may store and access personal data such as cookies, device identifiers or other similar technologies on your device and process such data to personalise content and ads, as well as provide social media features and to analyse the traffic.

  • Store and/or access information on your device

    Cookies, device identifiers or other information can be stored or accessed on your device for the purposes indicated above.

  • Personalised ads and content, ad and content measurement, audience insights, and products development

    Ads and content can be personalised based on a profile. More data can be added to better personalise ads and content. Ad and content performance can be measured. Insights about the audience who saw the ads and content can be derived. Such data can be used to develop or improve user’s experience, systems and software.

By clicking ‘I Agree’ you will allow the use of indicated cookies, device identifiers, web beacons or other similar technologies. Your settings can be changed in the browser on your device.

For certain purposes, legitimate interests may be relied on, rather than consent. You can read more about this in our Privacy and Cookie Policy.